Time,TemperatureF,DewpointF,PressureIn,WindDirection,WindDirectionDegrees,WindSpeedMPH,WindSpeedGustMPH,Humidity,HourlyPrecipIn,Conditions,Clouds,dailyrainin,SoftwareType,DateUTC
2013-06-01 00:00:00,72.6,67.2,29.92,SE,135,0.0,0.0,83,0.00,,---,0.00,VWS V14.01,2013-06-01 03:00:00,
2013-06-01 00:30:00,72.3,67.2,29.93,SE,135,0.0,0.0,84,0.00,,---,0.00,VWS V14.01,2013-06-01 03:30:00,
2013-06-01 01:00:00,72.1,67.3,29.92,SE,135,0.0,0.0,85,0.00,,---,0.00,VWS V14.01,2013-06-01 04:00:00,
2013-06-01 01:30:00,71.9,67.2,29.92,SE,135,0.0,0.0,85,0.00,,---,0.00,VWS V14.01,2013-06-01 04:30:00,
2013-06-01 02:00:00,71.0,66.9,29.92,SE,135,0.0,0.0,87,0.00,,---,0.00,VWS V14.01,2013-06-01 05:00:00,
2013-06-01 02:30:00,69.9,66.5,29.91,SE,135,0.0,0.0,89,0.00,,---,0.00,VWS V14.01,2013-06-01 05:30:00,
2013-06-01 03:00:00,69.2,66.2,29.91,SE,135,0.0,0.0,90,0.00,,---,0.00,VWS V14.01,2013-06-01 06:00:00,
2013-06-01 03:30:00,68.7,66.0,29.91,SE,135,0.0,0.0,91,0.00,,---,0.00,VWS V14.01,2013-06-01 06:30:00,
2013-06-01 04:00:00,67.9,65.5,29.90,SE,135,0.0,0.0,92,0.00,,---,0.00,VWS V14.01,2013-06-01 07:00:00,
2013-06-01 04:30:00,67.2,65.1,29.90,SE,135,0.0,0.0,93,0.00,,---,0.00,VWS V14.01,2013-06-01 07:30:00,
2013-06-01 05:00:00,66.6,64.8,29.90,SE,135,0.0,0.0,94,0.00,,---,0.00,VWS V14.01,2013-06-01 08:00:00,
2013-06-01 05:30:00,66.0,64.2,29.90,SE,135,0.0,0.0,94,0.00,,---,0.00,VWS V14.01,2013-06-01 08:30:00,
2013-06-01 06:00:00,65.4,63.6,29.91,SE,135,0.0,0.0,94,0.00,,---,0.00,VWS V14.01,2013-06-01 09:00:00,
2013-06-01 06:30:00,64.9,63.4,29.91,SE,135,0.0,0.0,95,0.00,,---,0.00,VWS V14.01,2013-06-01 09:30:00,
2013-06-01 07:00:00,64.6,63.1,29.91,SE,135,0.0,0.0,95,0.00,,---,0.00,VWS V14.01,2013-06-01 10:00:00,
2013-06-01 07:30:00,65.0,63.8,29.92,SE,135,0.0,0.0,96,0.00,,---,0.00,VWS V14.01,2013-06-01 10:30:00,
2013-06-01 08:00:00,66.3,65.1,29.91,SE,135,0.0,0.0,96,0.00,,---,0.00,VWS V14.01,2013-06-01 11:00:00,
2013-06-01 08:30:00,68.3,67.1,29.91,SE,135,0.0,0.0,96,0.00,,---,0.00,VWS V14.01,2013-06-01 11:30:00,
2013-06-01 09:00:00,71.6,68.5,29.92,SE,135,0.0,0.0,90,0.00,,---,0.00,VWS V14.01,2013-06-01 12:00:00,
2013-06-01 09:30:00,76.6,70.7,29.92,SE,135,0.0,0.0,82,0.00,,---,0.00,VWS V14.01,2013-06-01 12:30:00,
2013-06-01 10:00:00,82.1,70.1,29.92,SE,135,0.0,0.0,67,0.00,,---,0.00,VWS V14.01,2013-06-01 13:00:00,
2013-06-01 10:30:00,84.3,70.8,29.92,SE,135,0.0,0.0,64,0.00,,---,0.00,VWS V14.01,2013-06-01 13:30:00,
2013-06-01 11:00:00,88.1,70.4,29.91,SSE,158,0.0,2.0,56,0.00,,---,0.00,VWS V14.01,2013-06-01 14:00:00,
2013-06-01 11:30:00,89.7,70.3,29.91,SSE,158,0.0,3.0,53,0.00,,---,0.00,VWS V14.01,2013-06-01 14:30:00,
2013-06-01 12:00:00,91.4,70.7,29.90,SW,225,0.0,2.0,51,0.00,,---,0.00,VWS V14.01,2013-06-01 15:00:00,
2013-06-01 12:30:00,91.5,69.7,29.89,ESE,112,1.0,2.0,49,0.00,,---,0.00,VWS V14.01,2013-06-01 15:30:00,
2013-06-01 13:00:00,92.0,71.3,29.88,SE,135,1.0,5.0,51,0.00,,---,0.00,VWS V14.01,2013-06-01 16:00:00,
2013-06-01 13:30:00,91.8,68.7,29.86,South,180,1.0,6.0,47,0.00,,---,0.00,VWS V14.01,2013-06-01 16:30:00,
2013-06-01 14:00:00,93.5,64.8,29.85,South,180,1.0,10.0,39,0.00,,---,0.00,VWS V14.01,2013-06-01 17:00:00,
2013-06-01 14:30:00,95.1,64.8,29.84,South,180,1.0,4.0,37,0.00,,---,0.00,VWS V14.01,2013-06-01 17:30:00,
2013-06-01 15:00:00,93.7,62.7,29.84,South,180,2.0,7.0,36,0.00,,---,0.00,VWS V14.01,2013-06-01 18:00:00,
2013-06-01 15:30:00,93.7,64.3,29.84,South,180,2.0,5.0,38,0.00,,---,0.00,VWS V14.01,2013-06-01 18:30:00,
2013-06-01 16:00:00,93.8,63.6,29.83,South,180,2.0,7.0,37,0.00,,---,0.00,VWS V14.01,2013-06-01 19:00:00,
2013-06-01 16:30:00,93.7,65.0,29.82,South,180,2.0,7.0,39,0.00,,---,0.00,VWS V14.01,2013-06-01 19:30:00,
2013-06-01 17:00:00,94.7,64.4,29.82,South,180,1.0,4.0,37,0.00,,---,0.00,VWS V14.01,2013-06-01 20:00:00,
2013-06-01 17:30:00,93.3,62.4,29.81,South,180,1.0,6.0,36,0.00,,---,0.00,VWS V14.01,2013-06-01 20:30:00,
2013-06-01 18:00:00,92.5,63.2,29.80,South,180,1.0,6.0,38,0.00,,---,0.00,VWS V14.01,2013-06-01 21:00:00,
2013-06-01 18:30:00,90.9,64.7,29.80,South,180,1.0,4.0,42,0.00,,---,0.00,VWS V14.01,2013-06-01 21:30:00,
2013-06-01 19:00:00,89.7,66.2,29.80,SSE,158,0.0,5.0,46,0.00,,---,0.00,VWS V14.01,2013-06-01 22:00:00,
2013-06-01 19:30:00,88.6,68.2,29.79,SSE,158,0.0,4.0,51,0.00,,---,0.00,VWS V14.01,2013-06-01 22:30:00,
2013-06-01 20:00:00,87.8,68.0,29.80,SSE,158,0.0,2.0,52,0.00,,---,0.00,VWS V14.01,2013-06-01 23:00:00,
2013-06-01 20:30:00,85.8,68.8,29.80,SSE,158,0.0,2.0,57,0.00,,---,0.00,VWS V14.01,2013-06-01 23:30:00,
2013-06-01 21:00:00,84.6,68.2,29.81,SSE,158,0.0,2.0,58,0.00,,---,0.00,VWS V14.01,2013-06-02 00:00:00,
2013-06-01 21:30:00,83.4,68.1,29.81,SSE,158,0.0,2.0,60,0.00,,---,0.00,VWS V14.01,2013-06-02 00:30:00,
2013-06-01 22:00:00,81.5,67.2,29.82,SSE,158,0.0,1.0,62,0.00,,---,0.00,VWS V14.01,2013-06-02 01:00:00,
2013-06-01 22:30:00,79.8,68.3,29.83,SSE,158,0.0,1.0,68,0.00,,---,0.00,VWS V14.01,2013-06-02 01:30:00,
2013-06-01 23:00:00,79.0,69.6,29.83,SSE,158,0.0,1.0,73,0.00,,---,0.00,VWS V14.01,2013-06-02 02:00:00,
2013-06-01 23:30:00,78.4,69.8,29.83,SSE,158,0.0,1.0,75,0.00,,---,0.00,VWS V14.01,2013-06-02 02:30:00,